This is the latest recevied weather packets stored in our database for station/object W6UA-13. If no packets are shown the sender has not sent any weather packets the latest 10 day(s).
| Time | Temp. | Humidity | Pressure | Rain* | Wind** | Luminosity | Snow |
|---|---|---|---|---|---|---|---|
| 1777413893 | 21.67° C | 49% | 1017.6 hPa | 0 mm | - | 775 W/m² | - |
| 1777412994 | 22.22° C | 49% | 1017.6 hPa | 0 mm | - | 803 W/m² | - |
| 1777412094 | 22.22° C | 52% | 1017.5 hPa | 0 mm | - | 828 W/m² | - |
| 1777411193 | 21.11° C | 52% | 1017.5 hPa | 0 mm | - | 847 W/m² | - |
| 1777410294 | 21.11° C | 53% | 1017.4 hPa | 0 mm | - | 860 W/m² | - |
| 1777409394 | 21.11° C | 53% | 1017.3 hPa | 0 mm | - | 875 W/m² | - |
| 1777408494 | 20.56° C | 53% | 1017.3 hPa | 0 mm | - | 884 W/m² | - |
| 1777407593 | 20.56° C | 53% | 1017.4 hPa | 0 mm | - | 888 W/m² | - |
| 1777406694 | 20.56° C | 54% | 1017.7 hPa | 0 mm | - | 891 W/m² | - |
| 1777405794 | 19.44° C | 58% | 1018.1 hPa | 0 mm | - | 886 W/m² | - |
| 1777404894 | 18.89° C | 60% | 1018.4 hPa | 0 mm | - | 881 W/m² | - |
| 1777403994 | 18.33° C | 60% | 1018.6 hPa | 0 mm | - | 870 W/m² | - |
| 1777403094 | 18.33° C | 61% | 1018.6 hPa | 0 mm | - | 828 W/m² | - |
| 1777402194 | 17.78° C | 62% | 1018.9 hPa | 0 mm | - | 831 W/m² | - |
| 1777401294 | 18.33° C | 61% | 1018.9 hPa | 0 mm | - | 821 W/m² | - |
| 1777400394 | 17.78° C | 60% | 1019 hPa | 0 mm | - | 810 W/m² | - |
| 1777399494 | 18.33° C | 60% | 1019 hPa | 0 mm | - | 772 W/m² | - |
| 1777398594 | 18.33° C | 59% | 1019 hPa | 0 mm | - | 733 W/m² | - |
| 1777397694 | 17.78° C | 60% | 1019 hPa | 0 mm | - | 698 W/m² | - |
| 1777396794 | 17.22° C | 61% | 1018.8 hPa | 0 mm | - | 661 W/m² | - |
| 1777395894 | 17.22° C | 62% | 1018.7 hPa | 0 mm | - | 622 W/m² | - |
| 1777394994 | 16.67° C | 63% | 1018.8 hPa | 0 mm | - | 584 W/m² | - |
| 1777394094 | 15.56° C | 66% | 1018.9 hPa | 0 mm | - | 536 W/m² | - |
| 1777393194 | 15° C | 68% | 1019 hPa | 0 mm | - | 383 W/m² | - |
| 1777392294 | 14.44° C | 70% | 1018.9 hPa | 0 mm | - | 445 W/m² | - |
* Rain latest hour (hover to see other rain measurements)
** Current wind speed in m/s (hover to see current wind gust speed)